Regional Weather Roundup
Issued by NWS Memphis, TN

Home | Current Version | Previous Version | Text Only | Print | Product List | Glossary On
Versions: 1 2 3 4 5 6 7 8 9 10 11 12 13 14 15 16 17 18 19 20 21 22 23 24 25 26 27 28 29 30 31 32 33 34 35 36 37 38 39 40 41 42 43 44 45 46 47 48 49 50
000
ASUS44 KMEG 260010
RWRMEG
MEMPHIS CWA HOURLY WEATHER ROUNDUP
NATIONAL WEATHER SERVICE MEMPHIS TN
600 PM CST TUE NOV 25 2014

...WEST TENNESSEE...

CITY           SKY/WX    TMP DP  RH WIND       PRES   REMARKS
MEMPHIS INTL   MOCLDY    42  26  53 NW3       30.19R
6HR MIN TEMP:  41; 6HR MAX TEMP:  50;

NWS MEMPHIS      N/A     40 N/A N/A MISG        N/A
JACKSON        CLOUDY    41  27  57 NW3       30.18R
6HR MIN TEMP:  41; 6HR MAX TEMP:  48;

LEXINGTON      CLEAR     43  27  52 CALM      30.16R
SAVANNAH       CLEAR     41  32  70 CALM      30.17R
DYERSBURG      MOCLDY    39  19  45 CALM      30.20R
6HR MIN TEMP:  39; 6HR MAX TEMP:  45;

UNION CITY     CLEAR     36  28  75 CALM      30.17R
PARIS          CLEAR     37  25  60 CALM      30.17R
HUNTINGDON     CLOUDY    38  23  55 CALM      30.17R


...EASTERN ARKANSAS...

CITY           SKY/WX    TMP DP  RH WIND       PRES   REMARKS
JONESBORO      CLEAR     37  31  78 CALM      30.19R
6HR MIN TEMP:  37; 6HR MAX TEMP:  48;

WEST MEMPHIS   MOCLDY    38  31  76 CALM      30.19R
6HR MIN TEMP:  37; 6HR MAX TEMP:  47;

BATESVILLE     CLEAR     43  18  36 CALM      30.18R
6HR MIN TEMP:  43; 6HR MAX TEMP:  52;

NEWPORT        CLEAR     44  28  53 E3        30.20R
6HR MIN TEMP:  44; 6HR MAX TEMP:  51;

WALNUT RIDGE   CLEAR     39  27  60 SE6       30.18R WCI  35
6HR MIN TEMP:  39; 6HR MAX TEMP:  48;

BLYTHEVILLE    MOCLDY    47  32  56 CALM      30.19R
6HR MIN TEMP:  47; 6HR MAX TEMP:  59;

SEARCY         CLEAR     37  29  72 CALM      30.20R
6HR MIN TEMP:  37; 6HR MAX TEMP:  53;

STUTTGART        N/A     45  30  57 SE6       30.20R VSB 3/4
6HR MIN TEMP:  45; 6HR MAX TEMP:  54;

PINE BLUFF     CLEAR     42  31  64 SE6       30.20R
6HR MIN TEMP:  42; 6HR MAX TEMP:  54;

MONTICELLO     CLEAR     42  32  67 CALM      30.20R
6HR MIN TEMP:  42; 6HR MAX TEMP:  55; 6HR PCP: TRACE;



...NORTH MISSISSIPPI...

CITY           SKY/WX    TMP DP  RH WIND       PRES   REMARKS
TUPELO         CLOUDY    45  27  49 NW3       30.17R
6HR MIN TEMP:  45; 6HR MAX TEMP:  50;

OXFORD         CLOUDY    39  25  56 CALM      30.21R
OLIVE BRANCH   MOCLDY    39  28  65 NW5       30.19R
TUNICA         PTCLDY    45  28  53 NW5       30.21R
CLARKSDALE     PTCLDY    41  32  70 CALM      30.21S
CORINTH        CLOUDY    43  30  61 NW5       30.18R
GRENADA        MOCLDY    39  28  65 CALM      30.21R
GREENWOOD      MOCLDY    42  28  57 CALM      30.21R
6HR MIN TEMP:  42; 6HR MAX TEMP:  51;

COLUMBUS       CLOUDY    45  31  56 NW5       30.16R
6HR MIN TEMP:  45; 6HR MAX TEMP:  51;

STARKVILLE     FAIR      45  32  61 NW3       30.16S
GOLDEN TRIANGL CLEAR     45  30  57 CALM      30.16R


...SOUTHEAST MISSOURI...

CITY           SKY/WX    TMP DP  RH WIND       PRES   REMARKS
WEST PLAINS    CLEAR     32  19  58 CALM      30.15R
6HR MIN TEMP:  32; 6HR MAX TEMP:  45;

POPLAR BLUFF   CLEAR     39  25  57 CALM      30.18R
6HR MIN TEMP:  39; 6HR MAX TEMP:  48;

CAPE GIRARDEAU CLEAR     37  27  67 E3        30.18R
6HR MIN TEMP:  36; 6HR MAX TEMP:  44;



...NORTHWEST ALABAMA...

CITY           SKY/WX    TMP DP  RH WIND       PRES   REMARKS
MUSCLE SHOALS  CLOUDY    47  27  45 NW8       30.16R
6HR MIN TEMP:  47; 6HR MAX TEMP:  53;



...MIDDLE TENNESSEE...

CITY           SKY/WX    TMP DP  RH WIND       PRES   REMARKS
NASHVILLE      CLOUDY    44  26  49 N5        30.15R
6HR MIN TEMP:  44; 6HR MAX TEMP:  52;

CLARKSVILLE    CLOUDY    39  28  64 NW5       30.15R
6HR MIN TEMP:  39; 6HR MAX TEMP:  47;

COLUMBIA       CLEAR     45  27  49 CALM      30.14R


...WESTERN KENTUCKY...

CITY           SKY/WX    TMP DP  RH WIND       PRES   REMARKS
PADUCAH        PTCLDY    38  26  62 W3        30.17R
6HR MIN TEMP:  37; 6HR MAX TEMP:  45;

FORT CAMPBELL  CLOUDY    41  26  55 N3        30.16R
6HR MIN TEMP:  41; 6HR MAX TEMP:  46;



...CENTRAL ARKANSAS...

CITY           SKY/WX    TMP DP  RH WIND       PRES   REMARKS
LITTLE ROCK    CLEAR     48  19  31 CALM      30.19R
6HR MIN TEMP:  48; 6HR MAX TEMP:  56;



SKY/WX REPORTED AS FAIR MEANS FEW OR NO CLOUDS BELOW
12 THOUSAND FEET.



USA.gov is the U.S. government's official web portal to all federal, state and local government web resources and services.